Location: Marseilles
(40.7010°N, 83.3930°W)
Time: 20:05:02
(UTC-04:00)

Cosmos 1459 Rocket - Visible Passes

Search period start: 07 July 2015 00:00
Search period end: 17 July 2015 00:00
Orbit: 937 x 1001 km, 83.0° (Epoch: 06 July)

Date Brightness Start Highest point End Pass type
(mag) Time Alt. Az. Time Alt. Az. Time Alt. Az.
07 Jul 4.0 21:49:30 10° S 21:55:36 69° E 22:01:40 10° NNE visible
07 Jul 6.4 23:37:28 10° WSW 23:41:33 17° WNW 23:45:20 10° NNW visible
08 Jul 4.3 22:12:56 10° SSW 22:19:03 69° W 22:25:08 10° N visible
09 Jul 5.3 22:36:57 10° SW 22:42:40 39° WNW 22:48:18 10° N visible
10 Jul 6.2 23:01:42 10° WSW 23:06:29 23° WNW 23:11:04 10° NNW visible
11 Jul 4.0 21:38:05 10° S 21:44:13 89° W 21:50:20 10° N visible
11 Jul 6.7 23:27:49 10° W 23:30:31 13° WNW 23:32:51 10° NW visible
12 Jul 4.9 22:01:49 10° SSW 22:07:45 51° WNW 22:13:39 10° N visible
13 Jul 5.9 22:26:12 10° SW 22:31:28 29° WNW 22:36:37 10° NNW visible
14 Jul 6.6 22:51:30 10° WSW 22:55:24 17° WNW 22:59:01 10° NNW visible
15 Jul 4.5 21:26:48 10° SSW 21:32:52 66° W 21:38:54 10° N visible
16 Jul 5.6 21:50:52 10° SW 21:56:30 37° WNW 22:02:03 10° N visible
